CARTOSAT-2C

Last updated on Wed Jul 09 2025 00:02:29 GMT+0000 (Coordinated Universal Time)

1 41599U 16040A 25189.57979322 .00003495 00000+0 16885-3 0 9999 2 41599 97.4215 249.2452 0010817 244.1160 115.8960 15.19247555501540
UTC large
Height (km)
Speed (km/s)
/
Latitude / Longitude
Inclination (degrees)
Orbital Period (minutes)
Azimuth
Elevation
Range (km)
Doppler Factor

Next 0 passes for location: London (51.5072 / 0.1276)

Sorry there are no passes over London.